Regional Weather Roundup
Issued by NWS

Home | Current Version | Previous Version | Graphics & Text | Print | Product List | Glossary On
Versions: 1 2 3 4 5 6 7 8 9 10 11 12 13 14 15 16 17 18 19 20 21 22 23 24 25 26 27 28 29 30 31 32 33 34 35 36 37 38 39 40 41 42 43 44 45 46 47 48 49 50
000
ASUS43 KMPX 301401
RWRMN
WEATHER ROUNDUP FOR MINNESOTA
NATIONAL WEATHER SERVICE TWIN CITIES/CHANHASSEN MN
900 AM CDT THU JUL 30 2015


NOTE: "FAIR" INDICATES FEW OR NO CLOUDS BELOW 12,000 FEET WITH NO
SIGNIFICANT WEATHER AND/OR OBSTRUCTIONS TO VISIBILITY. N/A MEANS
CURRENT SKY AND/OR WEATHER CONDITIONS ARE NOT AVAILABLE.

MNZ060>063-068>070-301500-
   Twin Cities Metro

CITY           SKY/WX    TMP DP  RH WIND       PRES   REMARKS
TWIN CITIES    SUNNY     74  55  51 W10       30.03F
ST PAUL        SUNNY     73  57  57 SW7       30.03F
CRYSTAL        SUNNY     74  55  51 W10       30.02S
BLAINE         SUNNY     73  57  56 W9        30.03S
LAKEVILLE      SUNNY     70  55  60 W12       30.05F
EDEN PRAIRIE   SUNNY     73  56  54 W8        30.04S
SOUTH ST PAUL  SUNNY     71  55  56 W7        30.03S
LAKE ELMO      FAIR      72  59  64 W9        30.04S
$$
MNZ001>005-007-008-013>017-022>024-027-028-301500-
   Northwest Minnesota

CITY           SKY/WX    TMP DP  RH WIND       PRES   REMARKS
BEMIDJI        MOSUNNY   67  58  71 W12G17    30.00R
HALLOCK        MOSUNNY   66  59  77 W10       29.96S
ROSEAU         PTSUNNY   64  59  82 W14       29.94S
WARROAD        PTSUNNY   64  61  88 W10       29.94S
THIEF RVR FALL MOSUNNY   66  57  72 W9G17     30.00R
CROOKSTON      MOSUNNY   68  59  73 W15       30.01R
FOSSTON        MOSUNNY   64  59  82 W5        30.01F
DETROIT LAKES  SUNNY     68  55  64 W12       30.05S
MOORHEAD       SUNNY     70  59  68 W5        30.05R
PARK RAPIDS    SUNNY     69  57  65 W14       30.02S
MAHNOMEN       FAIR      64  56  77 W12G17    30.02S
$$
MNZ006-009>011-018-025>026-301500-
   North Central Minnesota

CITY           SKY/WX    TMP DP  RH WIND       PRES   REMARKS
BAUDETTE       LGT RAIN  60  57  89 SW7       29.93R
FLAG ISLAND    PTSUNNY   64  57  77 CALM      29.90F
INTL FALLS     MOSUNNY   65  57  75 W7        29.92S
WASKISH        MOSUNNY   66  61  82 SW8       29.95S
BIG FORK       SUNNY     68  59  73 W5        29.96F
LONGVILLE      SUNNY     70  59  68 W10       29.99S
GRAND RAPIDS   SUNNY     66  55  68 NW8       29.98S
CRANE LAKE     SUNNY     63  55  77 W3        29.94R
ORR            MOSUNNY   66  52  59 CALM      29.92S
COOK           MOSUNNY   66  55  68 W9        29.95S
WALKER         FAIR      66  57  73 W13G21    29.99S
$$
MNZ012-019>021-037-301500-
   Northeast Minnesota

CITY           SKY/WX    TMP DP  RH WIND       PRES   REMARKS
DULUTH         MOSUNNY   71  57  61 W14       29.96R
ELY            SUNNY     64  54  68 NW10G18   29.93R
HIBBING        SUNNY     69  57  65 W8        29.96R
EVELETH        SUNNY     68  54  60 W13       29.96S
DULUTH HARBOR  SUNNY     72  61  68 W12       29.95R
TWO HARBORS    SUNNY     73  61  64 W9G17     29.91S
SILVER BAY     SUNNY     72  55  56 W6        29.90R
GRAND MARAIS     N/A     70  52  52 NW10G21   29.84R
G MARAIS ARPRT   N/A     63  48  59 NW9G20    29.88R
$$
MNZ029>031-032-039>041-046>048-054>057-064-301500-
   West Central Minnesota

CITY           SKY/WX    TMP DP  RH WIND       PRES   REMARKS
FERGUS FALLS   SUNNY     64  55  72 W8        30.06S
WHEATON        SUNNY     70  55  60 W6        30.09S
MORRIS         SUNNY     72  57  60 W9        30.07S
ALEXANDRIA     SUNNY     68  56  65 W12       30.08S
ELBOW LAKE     FAIR      65  57  75 W8        30.07R
WADENA         SUNNY     68  57  68 W7        30.04R
GLENWOOD       SUNNY     66  57  72 W9        30.08R
APPLETON       SUNNY     70  57  64 W6        30.08R
BENSON         SUNNY     72  57  60 NW8       30.08S
ORTONVILLE     SUNNY     72  57  60 W7        30.09R
MADISON        SUNNY     72  57  60 W6        30.09S
WILLMAR        FAIR      68  59  73 W8        30.10R
$$
MNZ033>034-036-042>043-049>051-058-059-301500-
   Central Minnesota

CITY           SKY/WX    TMP DP  RH WIND       PRES   REMARKS
ST CLOUD       SUNNY     71  56  58 W8        30.04R
SAUK CENTRE    FAIR      67  58  72 W9        30.06S
PAYNESVILLE    SUNNY     67  56  68 SW8       30.07S
AITKIN         SUNNY     72  61  68 SW6       29.98S
PINE RIVER     SUNNY     68  57  68 W8        30.04R
BRAINERD       SUNNY     69  57  65 W8G18     30.01S
STAPLES        SUNNY     66  55  68 W10       30.03S
LONG PRAIRIE   FAIR      66  55  68 W9        30.06R
LITTLE FALLS   SUNNY     68  54  60 W9        30.04R
LITCHFIELD     SUNNY     72  59  64 W8        30.07S
BUFFALO        SUNNY     69  56  61 W9        30.06R
MAPLE LAKE     SUNNY     70  57  64 W9        30.05S
$$
MNZ037-044-045-052-053-301500-
   East Central Minnesota

CITY           SKY/WX    TMP DP  RH WIND       PRES   REMARKS
PRINCETON      SUNNY     72  57  60 W10       30.03R
MORA           SUNNY     68  55  64 W7        30.03R
CAMBRIDGE      SUNNY     73  57  56 W7        30.01R
RUSH CITY      SUNNY     69  58  67 W9        30.02R
MOOSE LAKE     SUNNY     70  59  68 W7        29.97R
HINCKLEY       FAIR      70  61  73 W7        30.00R
CLOQUET        SUNNY     70  55  60 W8        29.97R
MCGREGOR       SUNNY     70  59  68 W5        29.99S
$$
MNZ071>073-080-081-089-090-097-098-301500-
   Southwest Minnesota

CITY           SKY/WX    TMP DP  RH WIND       PRES   REMARKS
MONTEVIDEO     SUNNY     73  63  68 NW5       30.11R
GRANITE FALLS  SUNNY     69  58  68 W9        30.11S
CANBY          SUNNY     73  56  55 W9        30.12S
MARSHALL       SUNNY     73  55  53 W10       30.12R
REDWOOD FALLS  SUNNY     72  57  59 W12       30.09R
OLIVIA         SUNNY     68  55  64 W12       30.08S
PIPESTONE      SUNNY     70  55  60 CALM      30.15R
WINDOM         SUNNY     70  59  68 W3        30.12S
WORTHINGTON    SUNNY     72  55  56 W9        30.14R
JACKSON        SUNNY     73  59  60 W7        30.13R
TRACY          SUNNY     72  59  64 W6        30.12R
SLAYTON        SUNNY     72  57  59 CALM      30.15R
$$
MNZ065>067-074>077-082>085-091>093-301500-
   South Central Minnesota

CITY           SKY/WX    TMP DP  RH WIND       PRES   REMARKS
MANKATO        SUNNY     70  55  60 W10       30.08S
NEW ULM        SUNNY     72  61  68 W7        30.09R
ST JAMES       SUNNY     75  57  53 W8        30.11R
FAIRMONT       SUNNY     72  57  60 CALM      30.11R
GLENCOE        SUNNY     70  58  67 W9        30.07S
FARIBAULT      SUNNY     72  59  64 W5        30.08R
OWATONNA       SUNNY     70  57  64 W5        30.09R
WASECA         SUNNY     64  57  77 W7        30.10S
ALBERT LEA     SUNNY     72  57  60 W6        30.10S
$$
MNZ078>079-086>088-094>096-301500-
   Southeast Minnesota

CITY           SKY/WX    TMP DP  RH WIND       PRES   REMARKS
ROCHESTER      SUNNY     70  60  70 W8        30.10S
RED WING       SUNNY     73  57  56 W6        30.03S
STANTON        SUNNY     72  56  57 W6        30.05S
DODGE CENTER   SUNNY     70  57  64 W9        30.09R
WINONA         SUNNY     73  59  60 NW3       30.05S
AUSTIN         SUNNY     73  55  53 W12       30.09S
PRESTON        SUNNY     70  57  63 W10       30.09S
$$
ABBREVIATIONS USED IN REMARKS
   TC - TEMPERATURES IN CELSIUS
  WCI - WIND CHILL INDEX
   HX - HEAT INDEX
  VSB - VISIBILITY
$$


USA.gov is the U.S. government's official web portal to all federal, state and local government web resources and services.